DW6637 Weather Reports


time (UTC)temp
C
wind
direction
speed
KPH
gust
KPH
rain 1hr
cm
rain 24hr
cm
rain mn
cm
humidity
%
barometer
mb
20260508013015 22 276 0.0 0.0 0.00 0.00 0.00 62 1012.1
20260508011514 23 224 0.0 0.0 0.00 0.00 0.00 60 1012.1
20260508010015 25 44 0.0 0.0 0.00 0.00 0.00 57 1012.0
20260508004512 26 194 0.0 0.0 0.00 0.00 0.00 52 1012.0
20260508003008 26 252 0.0 0.0 0.00 0.00 0.00 52 1012.0
20260508001509 26 257 0.0 0.0 0.00 0.00 0.00 51 1011.9
20260508000007 27 235 0.0 0.0 0.00 0.00 0.00 51 1012.0
20260507234505 27 259 0.0 0.0 0.00 0.00 0.00 51 1012.1
20260507233003 27 259 0.0 1.6 0.00 0.00 0.00 51 1012.1
20260507231501 27 250 0.0 0.0 0.00 0.00 0.00 49 1012.2
20260507230105 27 267 0.0 0.0 0.00 0.00 0.00 49 1012.1
20260507230002 27 267 0.0 0.0 0.00 0.00 0.00 50 1012.2
20260507224557 27 263 0.0 0.0 0.00 0.00 0.00 49 1012.2
20260507223059 27 255 0.0 0.0 0.00 0.00 0.00 49 1012.4
20260507221555 27 242 0.0 0.0 0.00 0.00 0.00 49 1012.4
20260507220052 27 291 0.0 0.0 0.00 0.00 0.00 49 1012.7
20260507214613 28 319 0.0 0.0 0.00 0.00 0.00 49 1012.9
20260507213103 27 270 0.0 0.0 0.00 0.00 0.00 49 1013.1
20260507211600 28 295 0.0 0.0 0.00 0.00 0.00 49 1013.1
20260507210053 28 233 0.0 0.0 0.00 0.00 0.00 48 1013.2
20260507204544 27 311 0.0 0.0 0.00 0.00 0.00 51 1013.4
20260507203051 28 236 0.0 0.0 0.00 0.00 0.00 50 1013.4
20260507201545 28 217 0.0 0.0 0.00 0.00 0.00 50 1013.5
20260507200041 28 349 0.0 0.0 0.00 0.00 0.00 50 1013.7
20260507194608 28 263 0.0 0.0 0.00 0.00 0.00 50 1013.8
20260507193036 27 254 0.0 0.0 0.00 0.00 0.00 49 1013.9
20260507191537 27 252 0.0 0.0 0.00 0.00 0.00 50 1014.1
20260507190032 27 122 0.0 0.0 0.00 0.00 0.00 51 1014.3
20260507184525 26 111 0.0 0.0 0.00 0.00 0.00 54 1014.6
20260507183026 26 284 0.0 0.0 0.00 0.00 0.00 54 1014.8
20260507181520 25 113 0.0 0.0 0.00 0.00 0.00 56 1014.8
20260507180017 25 96 0.0 0.0 0.00 0.00 0.00 57 1014.9
20260507174517 24 85 0.0 0.0 0.00 0.00 0.00 57 1015.1
20260507173015 23 89 0.0 0.0 0.00 0.00 0.00 60 1015.1
20260507171512 23 114 0.0 0.0 0.00 0.00 0.00 60 1015.1
20260507170010 23 122 0.0 0.0 0.00 0.00 0.00 62 1015.2
20260507164505 22 219 0.0 0.0 0.00 0.00 0.00 65 1015.3
20260507163002 21 103 0.0 0.0 0.00 0.00 0.00 66 1015.4
20260507161601 21 91 0.0 0.0 0.00 0.00 0.00 67 1015.4
20260507160056 20 93 0.0 0.0 0.00 0.00 0.00 71 1015.5
20260507154559 20 103 0.0 0.0 0.00 0.00 0.00 71 1015.6
20260507153052 19 153 0.0 0.0 0.00 0.00 0.00 74 1015.7
20260507151547 17 152 0.0 0.0 0.00 0.00 0.00 82 1015.6
20260507150044 15 152 0.0 0.0 0.00 0.00 0.00 87 1015.7
20260507144542 14 152 0.0 0.0 0.00 0.00 0.00 89 1015.7
20260507143040 13 152 0.0 0.0 0.00 0.00 0.00 92 1015.6
20260507141543 12 236 0.0 0.0 0.00 0.00 0.00 93 1015.3
20260507140040 12 236 0.0 0.0 0.00 0.00 0.00 93 1015.2
20260507134539 11 236 0.0 0.0 0.00 0.00 0.00 93 1015.0
20260507133037 11 236 0.0 0.0 0.00 0.00 0.00 92 1014.9
20260507131546 11 236 0.0 0.0 0.00 0.00 0.00 92 1014.8
20260507130040 11 236 0.0 0.0 0.00 0.00 0.00 92 1014.5
20260507124533 11 237 0.0 0.0 0.00 0.00 0.00 92 1014.5
20260507123032 11 236 0.0 0.0 0.00 0.00 0.00 91 1014.5
20260507121531 11 236 0.0 0.0 0.00 0.00 0.00 91 1014.5
20260507120030 11 236 0.0 0.0 0.00 0.00 0.00 91 1014.7
20260507114629 11 236 0.0 0.0 0.00 0.00 0.00 90 1014.7
20260507113026 12 236 0.0 0.0 0.00 0.00 0.00 90 1014.6
20260507111526 12 236 0.0 0.0 0.00 0.00 0.00 90 1014.7
20260507110022 12 236 0.0 0.0 0.00 0.00 0.00 89 1014.8
20260507104521 12 236 0.0 0.0 0.00 0.00 0.00 89 1014.8
20260507103027 12 236 0.0 0.0 0.00 0.00 0.00 89 1015.0
20260507101517 12 236 0.0 0.0 0.00 0.00 0.00 88 1014.9
20260507100019 12 236 0.0 0.0 0.00 0.00 0.00 88 1015.0
20260507094513 12 236 0.0 0.0 0.00 0.00 0.00 88 1015.0
20260507093010 12 237 0.0 0.0 0.00 0.00 0.00 88 1015.3
20260507091508 13 236 0.0 0.0 0.00 0.00 0.00 87 1015.5
20260507090006 13 236 0.0 0.0 0.00 0.00 0.00 87 1015.6
20260507084504 13 236 0.0 0.0 0.00 0.00 0.00 86 1015.7
20260507083002 13 237 0.0 0.0 0.00 0.00 0.00 86 1015.8
20260507081701 13 236 0.0 0.0 0.00 0.00 0.00 85 1015.8
20260507080113 13 236 0.0 0.0 0.00 0.00 0.00 84 1015.9
20260507074555 13 236 0.0 0.0 0.00 0.00 0.00 84 1015.8
20260507073052 14 236 0.0 0.0 0.00 0.00 0.00 83 1015.9
20260507071607 14 237 0.0 0.0 0.00 0.00 0.00 83 1015.9
20260507070048 15 236 0.0 0.0 0.00 0.00 0.00 83 1016.0
20260507064647 15 236 0.0 0.0 0.00 0.00 0.00 82 1016.1
20260507063047 15 236 0.0 0.0 0.00 0.00 0.00 81 1016.2
20260507061546 15 236 0.0 0.0 0.00 0.00 0.00 79 1016.1
20260507060050 15 236 0.0 0.0 0.00 0.00 0.00 79 1016.1
20260507054545 15 236 0.0 0.0 0.00 0.00 0.00 78 1016.1
20260507053110 16 236 0.0 0.0 0.00 0.00 0.00 77 1016.1
20260507051545 16 236 0.0 0.0 0.00 0.00 0.00 77 1016.0
20260507050046 16 236 0.0 0.0 0.00 0.00 0.00 75 1016.0
20260507044542 16 236 0.0 0.0 0.00 0.00 0.00 74 1015.9
20260507043041 17 235 0.0 0.0 0.00 0.00 0.00 73 1015.9
20260507041543 17 235 0.0 0.0 0.00 0.00 0.00 72 1015.8
20260507040040 17 235 0.0 0.0 0.00 0.00 0.00 70 1015.6
20260507034540 17 235 0.0 0.0 0.00 0.00 0.00 68 1015.4
20260507033044 18 235 0.0 0.0 0.00 0.00 0.00 67 1015.3
20260507031539 18 235 0.0 0.0 0.00 0.00 0.00 66 1015.1
20260507030039 19 235 0.0 0.0 0.00 0.00 0.00 66 1015.0
20260507024541 19 360 0.0 0.0 0.00 0.00 0.00 66 1014.8
20260507023038 20 207 0.0 0.0 0.00 0.00 0.00 63 1014.6
20260507021538 20 242 0.0 0.0 0.00 0.00 0.00 62 1014.5
20260507020041 21 245 0.0 0.0 0.00 0.00 0.00 61 1014.4
20260507014545 21 72 0.0 0.0 0.00 0.00 0.00 59 1014.3